Location: ?ern� Novina
(50.6762°N, 14.8696°E)
Time: 11:48:54
(UTC+00:00)

Ariane Rocket - Pass Details

Date: 03 March 2021
Orbit: 759 x 771 km, 98.7° (Epoch: 13 April)

Event Time Altitude Azimuth Distance (km) Brightness Sun altitude
Exits shadow 18:42:04 22° 153° (SSE) 1,628 4.3 -19.1°
Maximum altitude 18:45:22 74° 71° (ENE) 805 2.9 -19.7°
Drops below altitude 10° 18:50:29 10° 348° (NNW) 2,324 5.8 -20.4°
Sets 18:52:48 0° 347° (NNW) 3,254 6.6 -20.8°
